Location: Le Rocchette
(44.3500°N, 7.8333°E)
Time: 16:24:32
(UTC+00:00)

COSMO-SKYMED 1 - Pass Details

Date: 17 November 2019
Orbit: 621 x 623 km, 97.9° (Epoch: 11 December)

Event Time Altitude Azimuth Distance (km) Brightness Sun altitude
Rises 05:10:51 0° 184° (S) 2,890 6.1 -13.6°
Reaches altitude 10° 05:13:08 10° 192° (SSW) 1,988 5.2 -13.2°
Maximum altitude 05:17:12 39° 262° (W) 936 3.0 -12.5°
Drops below altitude 10° 05:21:18 10° 332° (NNW) 2,003 4.8 -11.8°
Enters shadow 05:23:17 - 339° (NNW) 2,782 5.6 -11.4°
